Overview Statistics Trail Chart Weather Telemetry Raw packets
 

This is the latest recevied weather packets stored in our database for station/object DL2GFH-3. If no packets are shown the sender has not sent any weather packets the latest 10 day(s).

<< 1 2 3 4 5 >>
Time Temp. Humidity Pressure Rain* Wind** Luminosity Snow
1777717827 26.11° C 19% 1021.3 hPa - - - -
1777716922 26.67° C 19% 1021.5 hPa - - - -
1777716016 26.67° C 19% 1021.7 hPa - - - -
1777715111 26.11° C 19% 1021.8 hPa - - - -
1777714206 26.67° C 18% 1021.9 hPa - - - -
1777713300 26.67° C 18% 1022 hPa - - - -
1777712395 26.67° C 18% 1022.1 hPa - - - -
1777711489 26.67° C 18% 1022.2 hPa - - - -
1777710584 26.67° C 18% 1022.2 hPa - - - -
1777709679 26.11° C 19% 1022.2 hPa - - - -
1777708773 26.11° C 18% 1022.3 hPa - - - -
1777707868 26.11° C 18% 1022.3 hPa - - - -
1777706057 25° C 19% 1022.4 hPa - - - -
1777705151 23.89° C 20% 1022.5 hPa - - - -
1777704246 23.89° C 20% 1022.5 hPa - - - -
1777703341 21.67° C 23% 1022.7 hPa - - - -
1777702435 21.11° C 23% 1022.7 hPa - - - -
1777701530 20.56° C 24% 1022.7 hPa - - - -
1777700624 18.89° C 25% 1022.9 hPa - - - -
1777699719 18.33° C 26% 1022.9 hPa - - - -
1777698813 17.78° C 26% 1022.9 hPa - - - -
1777697908 17.22° C 27% 1022.8 hPa - - - -
1777697003 17.78° C 26% 1022.8 hPa - - - -
1777696097 18.89° C 25% 1022.7 hPa - - - -
1777695192 20° C 23% 1022.7 hPa - - - -

* Rain since midnight (hover to see other rain measurements)
** Current wind speed in m/s (hover to see current wind gust speed)